When you browse on this site, cookies collect data to enhance your experience and personalize the content and advertising you see.
Visit our Privacy Policy to learn more. By continuing to use the site, you agree to this use of cookies and data.
  • In Slovakia
  • List of Countries
  • For 7 days
  • Water Temperature
  • Satellite Maps
  • Weather Map
  • Weather Widgets
  • user-avatar
    Login

    Hourly Weather Annaba

    Today, 19 November, Monday

    Time Temperature Precipitation Wind Pressure Humidity
    00:00 +16°C° 0 mm 3 mps 753 mmHg 73%
    01:00 +16°C° 0 mm 3 mps 753 mmHg 73%
    02:00 +16°C° 0 mm 3 mps 752 mmHg 73%
    03:00 +15°C° 0 mm 4 mps 752 mmHg 73%
    04:00 +15°C° 0 mm 4 mps 751 mmHg 73%
    05:00 +15°C° 0 mm 4 mps 751 mmHg 73%
    06:00 +15°C° 0 mm 4 mps 750 mmHg 73%
    07:00 +15°C° 0 mm 5 mps 750 mmHg 73%
    08:00 +16°C° 0.2 mm 5 mps 750 mmHg 69%
    09:00 +17°C° 0.2 mm 5 mps 750 mmHg 65%
    10:00 +20°C° 0.2 mm 5 mps 750 mmHg 62%
    11:00 +21°C° 0 mm 5 mps 749 mmHg 55%
    12:00 +23°C° 0 mm 4 mps 749 mmHg 49%
    13:00 +25°C° 0 mm 4 mps 748 mmHg 42%
    14:00 +23°C° 0.1 mm 4 mps 748 mmHg 46%
    15:00 +23°C° 0.1 mm 5 mps 748 mmHg 50%
    16:00 +22°C° 0.1 mm 5 mps 747 mmHg 54%
    17:00 +21°C° 0.3 mm 4 mps 748 mmHg 58%
    18:00 +19°C° 0.3 mm 4 mps 748 mmHg 63%
    19:00 +18°C° 0.3 mm 3 mps 749 mmHg 68%
    20:00 +17°C° 0.1 mm 4 mps 749 mmHg 66%
    21:00 +17°C° 0.1 mm 4 mps 749 mmHg 65%
    22:00 +17°C° 0.1 mm 4 mps 750 mmHg 64%
    23:00 +17°C° 0 mm 4 mps 750 mmHg 63%

    Tomorrow, 20 November, Tuesday

    Time Temperature Precipitation Wind Pressure Humidity
    00:00 +16°C° 0 mm 5 mps 749 mmHg 63%
    01:00 +16°C° 0 mm 5 mps 749 mmHg 62%
    02:00 +15°C° 0 mm 5 mps 749 mmHg 62%
    03:00 +15°C° 0 mm 5 mps 749 mmHg 62%
    04:00 +15°C° 0 mm 5 mps 749 mmHg 62%
    05:00 +15°C° 0 mm 5 mps 749 mmHg 62%
    06:00 +14°C° 0 mm 6 mps 750 mmHg 62%
    07:00 +14°C° 0 mm 6 mps 750 mmHg 63%
    08:00 +15°C° 0.2 mm 6 mps 751 mmHg 62%
    09:00 +16°C° 0.2 mm 6 mps 751 mmHg 60%
    10:00 +17°C° 0.2 mm 6 mps 752 mmHg 59%
    11:00 +19°C° 0.1 mm 6 mps 752 mmHg 58%
    12:00 +19°C° 0.1 mm 5 mps 752 mmHg 57%
    13:00 +20°C° 0.1 mm 5 mps 753 mmHg 56%
    14:00 +19°C° 0.1 mm 5 mps 753 mmHg 58%
    15:00 +19°C° 0.1 mm 5 mps 754 mmHg 60%
    16:00 +19°C° 0.1 mm 5 mps 754 mmHg 62%
    17:00 +18°C° 0 mm 4 mps 755 mmHg 66%
    18:00 +17°C° 0 mm 3 mps 755 mmHg 71%
    19:00 +16°C° 0 mm 2 mps 756 mmHg 76%
    20:00 +16°C° 0 mm 2 mps 756 mmHg 75%
    21:00 +16°C° 0 mm 2 mps 757 mmHg 75%
    22:00 +14°C° 0 mm 3 mps 757 mmHg 74%
    23:00 +14°C° 0 mm 3 mps 757 mmHg 71%

    Day after tomorrow, 21 November, Wednesday

    Time Temperature Precipitation Wind Pressure Humidity
    00:00 +14°C° 0 mm 3 mps 757 mmHg 68%
    01:00 +14°C° 0 mm 4 mps 757 mmHg 64%
    02:00 +14°C° 0 mm 4 mps 757 mmHg 61%
    03:00 +14°C° 0 mm 4 mps 757 mmHg 57%
    04:00 +14°C° 0 mm 4 mps 758 mmHg 53%
    05:00 +14°C° 0 mm 4 mps 758 mmHg 54%
    06:00 +14°C° 0 mm 4 mps 758 mmHg 55%
    07:00 +14°C° 0 mm 4 mps 759 mmHg 56%
    08:00 +17°C° 0 mm 4 mps 759 mmHg 54%
    09:00 +18°C° 0 mm 4 mps 760 mmHg 51%
    10:00 +20°C° 0 mm 4 mps 761 mmHg 49%
    11:00 +21°C° 0 mm 4 mps 761 mmHg 46%
    12:00 +21°C° 0 mm 4 mps 761 mmHg 44%
    13:00 +22°C° 0 mm 4 mps 761 mmHg 41%
    14:00 +22°C° 0 mm 4 mps 761 mmHg 43%
    15:00 +22°C° 0 mm 4 mps 761 mmHg 45%
    16:00 +21°C° 0 mm 3 mps 761 mmHg 47%
    17:00 +20°C° 0 mm 3 mps 761 mmHg 53%
    18:00 +18°C° 0 mm 2 mps 762 mmHg 60%
    19:00 +17°C° 0 mm 2 mps 762 mmHg 66%
    20:00 +16°C° 0 mm 2 mps 762 mmHg 66%
    21:00 +16°C° 0 mm 2 mps 763 mmHg 66%
    22:00 +16°C° 0 mm 2 mps 763 mmHg 66%
    23:00 +16°C° 0 mm 2 mps 763 mmHg 64%

    22 November, Thursday

    Time Temperature Precipitation Wind Pressure Humidity
    00:00 +16°C° 0 mm 2 mps 763 mmHg 62%
    01:00 +16°C° 0 mm 3 mps 763 mmHg 61%
    02:00 +16°C° 0 mm 3 mps 763 mmHg 58%
    03:00 +16°C° 0 mm 3 mps 763 mmHg 55%
    04:00 +16°C° 0 mm 3 mps 763 mmHg 52%
    05:00 +16°C° 0 mm 3 mps 763 mmHg 51%
    06:00 +16°C° 0 mm 3 mps 763 mmHg 49%
    07:00 +16°C° 0 mm 3 mps 763 mmHg 48%
    08:00 +17°C° 0 mm 3 mps 763 mmHg 46%
    09:00 +19°C° 0 mm 3 mps 763 mmHg 45%
    10:00 +21°C° 0 mm 3 mps 763 mmHg 44%
    11:00 +22°C° 0 mm 3 mps 763 mmHg 40%
    12:00 +25°C° 0 mm 3 mps 763 mmHg 37%
    13:00 +26°C° 0 mm 3 mps 762 mmHg 34%
    14:00 +26°C° 0 mm 2 mps 762 mmHg 35%
    15:00 +26°C° 0 mm 2 mps 762 mmHg 37%
    16:00 +26°C° 0 mm 2 mps 762 mmHg 38%
    17:00 +24°C° 0 mm 2 mps 762 mmHg 39%
    18:00 +21°C° 0 mm 2 mps 762 mmHg 40%
    19:00 +20°C° 0 mm 2 mps 763 mmHg 42%
    20:00 +19°C° 0 mm 2 mps 763 mmHg 42%
    21:00 +19°C° 0 mm 3 mps 763 mmHg 42%
    22:00 +18°C° 0 mm 3 mps 764 mmHg 42%
    23:00 +18°C° 0 mm 3 mps 763 mmHg 43%

    23 November, Friday

    Time Temperature Precipitation Wind Pressure Humidity
    00:00 +17°C° 0 mm 3 mps 763 mmHg 44%
    01:00 +17°C° 0 mm 3 mps 763 mmHg 44%
    02:00 +17°C° 0 mm 3 mps 763 mmHg 44%
    03:00 +17°C° 0 mm 3 mps 763 mmHg 45%
    04:00 +16°C° 0 mm 3 mps 763 mmHg 45%
    05:00 +16°C° 0 mm 3 mps 763 mmHg 45%
    06:00 +16°C° 0 mm 2 mps 763 mmHg 45%
    07:00 +16°C° 0 mm 2 mps 763 mmHg 44%
    08:00 +17°C° 0 mm 2 mps 764 mmHg 42%
    09:00 +19°C° 0 mm 2 mps 764 mmHg 40%
    10:00 +21°C° 0 mm 2 mps 764 mmHg 39%
    11:00 +23°C° 0 mm 2 mps 764 mmHg 36%
    12:00 +25°C° 0 mm 2 mps 763 mmHg 34%
    13:00 +26°C° 0 mm 1 mps 763 mmHg 31%
    14:00 +26°C° 0 mm 2 mps 763 mmHg 33%
    15:00 +26°C° 0 mm 2 mps 763 mmHg 35%
    16:00 +25°C° 0 mm 3 mps 762 mmHg 37%
    17:00 +24°C° 0 mm 3 mps 762 mmHg 39%
    18:00 +21°C° 0 mm 3 mps 763 mmHg 41%
    19:00 +20°C° 0 mm 3 mps 763 mmHg 43%
    20:00 +19°C° 0 mm 3 mps 763 mmHg 42%
    21:00 +19°C° 0 mm 3 mps 763 mmHg 41%
    22:00 +19°C° 0 mm 3 mps 763 mmHg 40%
    23:00 +18°C° 0 mm 3 mps 763 mmHg 41%

    24 November, Saturday

    Time Temperature Precipitation Wind Pressure Humidity
    00:00 +18°C° 0 mm 3 mps 763 mmHg 42%
    01:00 +18°C° 0 mm 3 mps 763 mmHg 43%
    02:00 +18°C° 0 mm 3 mps 762 mmHg 44%
    03:00 +18°C° 0 mm 3 mps 762 mmHg 46%
    04:00 +17°C° 0 mm 3 mps 762 mmHg 48%
    05:00 +17°C° 0 mm 3 mps 762 mmHg 49%
    06:00 +17°C° 0 mm 3 mps 762 mmHg 51%
    07:00 +17°C° 0 mm 3 mps 762 mmHg 52%
    08:00 +19°C° 0 mm 3 mps 763 mmHg 50%
    09:00 +20°C° 0 mm 3 mps 763 mmHg 48%
    10:00 +22°C° 0 mm 3 mps 763 mmHg 46%
    11:00 +24°C° 0 mm 2 mps 762 mmHg 42%
    12:00 +26°C° 0 mm 2 mps 762 mmHg 39%
    13:00 +27°C° 0 mm 1 mps 762 mmHg 36%
    14:00 +27°C° 0 mm 1 mps 761 mmHg 38%
    15:00 +26°C° 0 mm 1 mps 761 mmHg 39%
    16:00 +26°C° 0 mm 1 mps 761 mmHg 41%
    17:00 +25°C° 0 mm 1 mps 761 mmHg 43%
    18:00 +23°C° 0 mm 2 mps 761 mmHg 44%
    19:00 +21°C° 0 mm 2 mps 762 mmHg 45%
    20:00 +21°C° 0 mm 2 mps 762 mmHg 45%
    21:00 +21°C° 0 mm 2 mps 762 mmHg 45%
    22:00 +21°C° 0 mm 2 mps 762 mmHg 44%
    23:00 +21°C° 0 mm 2 mps 762 mmHg 45%
    Show more